Showing default

GHGSAT-C13, 64548

Orbit data source: Space-Track

GHGSAT-C13, 64548 is a payload satellite owned by GHG (CA) in SSO that was launched on Mon, 23 Jun 2025 UTC via an FALCON 9 launch vehicle from the Air Force Western Test Range (AFWTR). Payload-class satellites include a variety of spacecraft equipped with specific instruments for various scientific and technological missions. These include communications satellites like Starlink; space stations such as the ISS; scientific satellites like the Hubble; Earth observation satellites from companies like Planet Labs, Umbra, and HawkEye 360; GPS; miniature CubeSats for education and research; and military/defense satellites.

Loading next visibility...
Identifier
64548, 2025-135W
Orbit
SSO
Country
Flag of CACA
Related business
Manufacturer
UTIAS-SFL
Mission
Operational Commercial Earth Obs Sci
Bus & Motor
NEMO-V1, Unknown motor
Mass
15 kg wet, 15 kg dry
Launch date (UTC)
2025-06-23 (8 months ago)
Launch vehicle
FALCON 9
Launch site
Air Force Western Test Range (AFWTR)
Object type
Payload
Rocket body
Debris
Shape & HBR
Box, 1.0 m
Radar Cross Section
0.100 m², Medium (>0.1 m² and < 1m²)

Expand to show TLE details & history
Last TLE update: 8 hours ago

TLE from 8 hours ago
0 GHGSAT-C13
1 64548U 25135W   26062.50404664  .00004764  00000-0  22321-3 0  9992
2 64548  97.4646 178.8032 0002567 107.1539 252.9978 15.20182434 38799
Epoch: 2026-03-03T12:05Z
TLE epoch observation values (Epoch: 2026-03-03T12:05:49.629Z)
Latitude
0.00004°
Longitude
-163.93575°
Altitude
508.896 km
Speed
7.609 km/s
True Right ascension
11h 55m 12s
True Declination
0° 00' 00"
Sunlit
Object was in full shadow at epoch
Visualization orbit readout
Latitude
Unknown
Longitude
Unknown
Altitude
Unknown
Speed
Unknown
Apparent Right ascension
Unknown
Apparent Declination
Unknown
Sunlit
N/A
Visualization observer readout
Local Sidereal Time
23:38:09
Azimuth
Unknown
Elevation
Unknown
Doppler factor
Unknown
Orbital elements
Apogee altitude
504.024 km
Perigee altitude
500.492 km
Semi-major axis
6,880.395 km
Eccentricity
0.00026
Inclination
97.4646°
RAAN
178.8032°
Arg. of periapsis
107.1539°
True anomaly
252.96967°
Mean anomaly
252.9978°
Eccentric anomaly
252.98374°
Mean motion
3.80297 °/min
Orbital period
94.66 mins
BSTAR
0.00022321
Loading maneuver chart data...
Computing Atmospheric mass density...
Loading historical data...
Loading historical data...
Loading historical data...
Loading historical data...
Loading historical data...
Loading historical data...
Loading historical data...

Documentation

Showing up to 5 results
|